Temp
10 10 9 10 10 11 11 11 10 10 10 12 13 14 14 14 14 15 15 14 14 14 14 14 13 13 13 13 13 13 12 12 12 12 12 12 12 12
9 9 9 9 10 11 11 11 11 10 10 12 13 13 12 13 13 13 12 13 12 12 12 12 12 12 12 12 12 12 12 12 11 10 10 10 10 11
8 8 9 9 9 9 10 11 11 11 11 12 12 12 12 12 12 11 11 11 11 11 11 11 11 11 11 10 10 10 10 7 7 7 7 7 8 8
7 7 8 8 8 8 9 9 9 9 9 9 10 11 10 10 10 10 10 10 9 9 9 9 9 8 7 6 5 5 5 5 5 5 5 5 6 6
7 7 7 7 7 7 7 7 8 8 8 8 8 9 9 9 9 9 9 9 8 7 6 6 6 5 5 5 5 4 4 4 4 4 5 6 6 5
7 7 7 7 7 7 7 7 7 8 8 8 9 9 9 8 8 7 8 6 6 5 5 5 4 4 4 5 4 3 3 3 2 3 3 3 3 3
7 7 7 7 6 7 7 7 8 8 8 8 8 8 7 6 5 4 4 4 4 4 4 5 4 5 4 3 3 3 2 2 1 1 1 1 1 1
7 7 6 6 6 5 6 6 6 6 6 5 6 6 4 4 4 3 2 3 3 3 2 3 3 3 3 2 2 2 2 1 0 0 0 0 -0 -0
5 6 6 6 6 5 5 5 5 6 5 5 4 3 3 2 2 2 1 -0 1 1 0 1 1 2 1 1 1 1 1 -0 -0 -0 -0 -0 -0 -0
5 5 5 4 4 4 4 4 4 4 4 4 3 3 2 2 2 1 0 -0 0 -1 -0 -1 -0 0 1 0 -0 -0 -1 -1 -1 -1 -1 -1 -1 -1
4 4 4 4 4 3 3 3 3 3 2 2 2 1 0 1 1 1 0 0 -1 -1 -1 -2 -2 -2 -1 -1 -1 -1 -1 -1 -2 -2 -2 -1 -2 -1
5 4 4 4 3 3 3 2 2 2 2 1 0 0 0 -0 -0 0 -0 -1 -2 -3 -3 -2 -4 -4 -3 -1 -1 -1 -1 -1 -2 -3 -3 -3 -2 -2
4 4 4 3 3 3 3 2 2 2 1 1 1 -0 -0 -1 -1 -1 -1 -2 -3 -4 -4 -3 -5 -4 -4 -4 -2 -2 -2 -2 -3 -3 -2 -2 -3 -3
5 5 4 3 3 3 2 2 1 1 1 1 -0 -0 -1 -1 -1 -1 -2 -2 -3 -3 -4 -4 -4 -5 -5 -6 -5 -3 -2 -3 -4 -4 -3 -3 -2 -3
5 4 3 3 2 2 2 2 1 0 0 -0 -0 -0 -1 -1 -2 -2 -2 -3 -3 -4 -4 -4 -5 -5 -6 -7 -6 -5 -6 -4 -4 -5 -4 -3 -4 -4
4 4 3 2 2 2 1 1 0 0 0 0 0 -0 -1 -2 -3 -3 -3 -4 -4 -4 -4 -4 -5 -6 -6 -6 -7 -8 -5 -6 -5 -5 -5 -4 -3 -4
4 3 2 1 0 0 0 0 -0 -0 -1 -0 -1 -1 -2 -3 -4 -4 -4 -5 -4 -4 -4 -5 -5 -6 -6 -6 -7 -6 -6 -6 -5 -6 -6 -7 -5 -4
3 2 1 0 -0 -1 -0 -0 -0 -0 -0 -1 -1 -2 -2 -3 -4 -4 -5 -5 -5 -5 -5 -5 -6 -6 -6 -6 -6 -6 -6 -6 -6 -6 -6 -6 -5 -3
2 1 1 0 0 -0 -0 -0 -0 1 0 -0 -1 -2 -2 -3 -4 -5 -5 -5 -6 -6 -6 -6 -6 -6 -11 -11 -6 -6 -6 -6 -6 -6 -6 -6 -6 -4
2 1 0 0 0 0 -0 -0 -0 -0 -0 -1 -1 -2 -3 -4 -5 -5 -5 -6 -6 -6 -6 -7 -7 -7 -7 -10 -7 -6 -6 -6 -6 -7 -7 -6 -5 -4
1 1 1 0 -0 -0 -0 -1 -0 -1 -1 -1 -1 -2 -3 -4 -5 -5 -5 -6 -6 -6 -6 -7 -7 -7 -7 -7 -8 -7 -6 -6 -6 -7 -6 -6 -6 -5
0 0 0 0 -0 -1 -1 -1 -1 -1 -1 -1 -1 -1 -2 -3 -5 -5 -6 -6 -6 -6 -6 -7 -7 -7 -7 -7 -7 -7 -6 -6 -5 -5 -5 -6 -6 -6
0 0 0 -0 -0 -0 -1 -1 -1 -2 -2 -2 -2 -2 -3 -4 -5 -5 -6 -6 -7 -7 -7 -7 -7 -7 -7 -7 -8 -7 -7 -7 -6 -6 -5 -6 -6 -6
Height
773 771 769 766 764 763 762 761 762 759 756 754 753 752 751 751 750 749 749 748 749 750 751 751 752 752 752 751 751 750 749 748 747 746 745 744 743 743
772 771 768 765 763 761 759 759 758 757 757 754 753 752 752 751 751 749 749 749 748 748 750 750 751 750 749 748 747 746 744 743 742 741 740 739 738 737
771 769 768 766 763 761 759 757 755 755 754 752 752 752 751 751 751 750 750 749 748 748 748 748 748 747 745 744 743 742 741 740 739 738 737 736 735 733
770 768 767 765 764 762 760 758 757 756 755 753 752 752 752 752 751 750 749 748 748 747 746 745 744 743 742 742 741 740 740 738 738 737 735 733 732 730
769 768 766 764 762 761 759 758 757 755 754 753 752 752 751 750 749 749 748 748 747 746 745 744 743 743 743 742 741 741 740 738 737 736 734 731 728 726
767 765 764 762 761 760 758 757 756 755 753 752 751 750 749 748 747 747 747 746 746 746 745 744 743 743 742 741 740 740 740 738 736 734 732 729 726 724
764 763 762 760 759 757 756 755 753 752 751 749 748 748 747 747 747 747 746 746 745 744 743 742 742 741 740 739 738 738 737 736 734 732 730 728 725 722
762 761 760 759 757 756 755 754 752 750 749 748 747 746 746 746 746 746 747 746 745 743 740 739 739 739 738 737 736 734 735 733 732 730 728 726 724 720
760 759 757 757 756 755 754 753 751 749 749 748 747 746 745 745 745 745 745 745 743 741 739 737 737 736 736 735 735 734 732 731 729 728 727 725 722 719
757 756 755 754 754 754 753 752 751 749 748 746 746 745 745 745 744 743 743 742 741 740 738 737 736 735 734 733 733 733 732 731 728 726 725 723 720 718
753 752 751 750 750 749 749 749 748 747 747 746 745 744 743 743 742 741 740 740 738 738 737 737 736 734 732 733 732 731 730 730 728 725 722 721 718 715
749 748 748 747 747 746 745 745 745 745 745 745 744 743 742 742 741 741 739 739 739 738 738 739 738 738 734 732 733 731 728 728 727 724 721 719 716 712
744 743 743 743 743 742 741 741 741 741 742 742 742 742 741 740 740 739 739 738 739 739 739 739 738 739 739 735 731 729 727 725 725 723 720 717 713 710
738 738 738 738 739 739 738 737 737 738 738 738 738 738 738 738 737 737 737 737 737 738 738 738 738 738 738 736 732 727 725 724 723 720 717 714 711 708
732 733 733 733 734 734 734 734 734 733 734 734 733 733 734 734 734 734 734 734 735 735 736 737 737 737 737 735 733 728 725 723 722 719 714 711 708 705
726 726 727 728 729 729 729 730 729 730 729 729 729 729 730 730 731 731 732 732 732 732 733 734 735 734 733 731 730 726 725 724 721 718 713 709 706 703
721 721 721 722 722 723 724 724 725 726 725 725 726 726 727 728 729 730 730 730 730 729 730 731 731 730 727 726 725 722 722 722 720 716 712 707 703 701
713 712 714 715 715 716 716 718 719 719 719 721 721 722 722 724 726 727 728 728 728 728 729 730 730 727 725 723 722 721 721 719 717 714 711 708 702 698
705 704 705 706 707 708 709 710 711 712 714 715 716 717 718 719 721 723 724 725 725 725 725 725 726 726 728 727 721 719 718 716 713 710 708 706 702 696
698 697 698 699 700 701 701 702 704 705 706 708 709 712 714 715 716 717 719 720 722 723 724 725 724 725 724 724 721 717 716 714 712 708 705 702 698 695
689 688 689 690 691 692 692 693 695 695 697 699 700 703 706 709 711 713 715 718 720 721 720 720 722 722 721 721 719 714 712 711 709 705 703 701 696 692
682 681 682 682 683 683 684 684 685 687 688 690 692 695 699 702 706 709 711 712 715 715 718 719 720 719 719 718 716 714 710 707 705 702 702 701 698 693
677 676 675 674 674 675 675 675 676 677 679 681 684 687 692 696 699 703 707 710 712 713 714 716 717 717 718 716 715 713 710 707 703 701 700 698 695 692
Wind_Speed
13 14 16 15 13 15 13 12 7 3 3 4 6 6 11 8 7 4 3 1 0 2 3 5 7 10 13 15 16 17 18 19 20 21 21 22 23 22
11 12 15 14 10 10 12 13 13 10 3 3 5 9 6 8 9 8 7 4 5 6 7 8 10 12 13 15 16 17 19 20 20 17 15 15 17 19
13 13 14 12 10 10 9 5 5 5 3 3 3 4 3 5 6 6 5 6 7 8 10 11 13 15 16 16 16 17 17 13 13 13 14 14 16 15
14 14 13 12 10 10 9 8 8 8 5 2 4 4 4 10 9 7 7 7 9 10 13 14 13 12 11 12 13 13 13 14 14 15 15 16 16 17
10 12 12 12 11 11 11 10 8 7 6 4 5 7 10 8 8 6 7 8 10 8 7 8 8 8 9 10 10 9 10 12 12 13 15 16 17 18
9 9 9 8 9 10 10 8 7 8 7 8 8 9 6 4 6 6 8 10 8 5 6 9 8 6 6 7 7 8 9 11 13 15 15 15 16 17
8 7 7 8 8 9 8 7 7 7 7 7 6 3 2 3 4 7 5 10 5 3 6 9 5 5 5 4 6 7 10 13 17 16 15 15 16 17
9 9 8 8 7 6 7 5 4 4 4 3 2 2 2 2 3 4 4 4 2 5 11 13 1 4 5 2 4 8 12 14 13 13 14 14 16 19
10 9 8 8 7 7 8 6 6 7 5 5 4 4 4 4 5 6 5 5 6 8 9 3 4 4 6 10 7 8 11 8 11 12 13 14 16 17
12 11 10 11 11 8 8 9 8 6 4 3 4 4 3 4 5 6 6 7 7 1 9 2 6 8 11 4 2 4 7 10 13 11 12 13 14 16
14 14 13 11 10 10 11 11 11 8 5 4 3 2 2 4 3 3 3 3 2 2 6 8 6 12 8 2 0 3 6 13 12 11 12 13 15 17
15 15 16 16 12 10 11 11 13 12 10 8 7 8 6 5 5 4 3 1 0 2 4 7 7 10 7 2 4 6 7 15 11 10 14 14 14 17
18 17 17 16 14 12 11 12 13 10 10 10 9 8 8 7 6 6 4 3 2 3 1 5 1 3 3 7 8 6 8 17 9 11 15 17 15 13
23 19 17 16 17 14 13 10 9 9 10 10 10 10 10 9 9 7 6 5 5 6 6 3 2 3 3 4 7 9 16 7 9 19 19 17 14 12
23 19 17 17 17 16 15 12 10 11 11 12 13 13 12 10 8 7 7 7 7 7 6 5 6 6 7 7 10 13 12 8 9 20 21 18 18 15
24 20 18 17 18 18 16 16 15 15 15 15 15 13 11 11 9 7 6 7 6 7 7 6 8 10 12 14 16 13 9 6 16 19 22 20 15 11
23 21 19 18 20 22 21 20 19 18 18 17 15 15 14 12 10 9 7 7 7 5 6 6 5 9 13 13 11 9 8 13 15 17 20 18 17 15
18 22 25 25 25 25 26 26 24 23 24 21 19 17 16 15 13 12 10 8 7 6 5 4 5 10 6 5 7 6 8 11 15 16 15 15 19 16
22 23 24 25 27 27 27 27 27 28 26 25 24 22 18 16 14 15 13 11 9 7 5 4 2 3 1 1 6 9 9 16 18 21 17 17 20 20
25 23 22 24 27 28 25 26 27 26 25 27 27 24 21 19 18 17 16 14 11 8 7 5 3 5 4 3 4 10 12 16 15 18 19 18 17 14
25 26 26 25 26 28 29 27 27 26 27 28 28 27 24 22 21 18 16 14 12 11 10 7 7 7 8 12 6 9 14 7 11 14 14 16 16 8
21 23 25 27 27 27 26 26 25 25 24 27 28 27 26 23 22 19 19 18 14 12 10 6 6 7 8 8 9 13 14 15 6 3 2 4 7 4
23 23 25 27 28 27 26 26 26 25 26 28 28 27 26 25 23 20 20 17 15 12 9 7 7 5 5 7 8 11 11 14 12 10 6 11 11 8
Wind_Direction
336 334 323 313 316 311 302 287 257 297 295 317 308 337 350 9 37 29 39 23 303 272 305 307 309 308 310 313 312 310 311 311 311 310 308 305 302 299
353 353 7 359 325 315 306 296 287 248 265 293 311 332 19 46 52 53 53 27 20 11 352 334 318 314 314 315 314 316 318 318 312 320 329 311 302 295
329 335 342 349 8 14 22 354 322 285 242 297 340 8 11 3 13 20 13 9 358 343 332 325 321 320 317 316 318 320 324 350 10 5 355 331 319 326
328 329 332 339 343 349 351 355 4 7 334 299 318 346 11 345 349 356 17 12 1 347 330 321 321 321 337 1 9 10 19 26 23 23 20 16 13 6
320 324 330 336 340 346 343 338 338 341 343 332 319 319 329 341 358 358 356 359 357 9 21 18 25 46 30 8 359 10 23 20 15 5 355 350 350 350
315 315 317 317 319 322 324 320 321 317 321 311 299 297 298 302 329 345 335 346 349 12 32 25 22 27 21 7 357 1 10 16 6 3 358 352 345 342
309 307 308 311 318 309 307 303 301 290 282 276 277 281 325 335 357 338 316 329 302 327 318 344 346 334 332 16 335 356 8 6 359 358 354 351 349 346
300 298 297 293 306 311 301 307 322 327 308 295 289 261 252 301 321 337 329 332 290 268 330 329 300 318 300 3 12 330 322 338 350 358 356 353 352 349
281 284 286 287 299 297 278 282 296 290 288 283 244 225 218 241 287 290 270 261 250 291 335 273 305 306 296 297 284 327 320 359 358 354 354 353 352 349
271 270 278 287 283 282 267 272 274 269 258 243 226 225 245 277 291 290 293 299 304 305 356 325 332 331 332 357 47 10 14 1 351 354 351 347 347 345
269 262 271 271 271 262 250 251 252 248 248 255 261 226 242 284 313 289 270 325 333 352 1 349 342 330 334 46 349 336 340 350 355 352 346 337 335 331
272 260 257 272 267 276 246 247 242 245 234 232 237 232 243 265 305 319 312 278 201 341 344 349 349 353 331 255 278 306 322 342 337 339 348 345 337 328
271 265 259 259 259 271 260 246 245 245 225 246 243 242 251 272 289 297 294 287 226 235 290 349 320 333 297 306 312 309 329 339 331 334 337 338 337 336
267 272 266 259 257 263 262 252 238 236 237 233 234 243 255 268 282 281 273 263 250 257 256 276 268 266 276 289 276 303 325 335 340 342 341 340 340 336
264 270 267 259 254 255 257 250 238 237 238 238 241 247 250 258 261 258 260 248 259 247 232 260 271 291 281 260 286 296 328 332 345 342 340 344 340 337
260 260 260 255 243 249 247 241 240 242 241 244 247 243 237 238 241 244 240 233 238 226 233 254 264 286 291 286 279 281 295 306 333 341 337 332 339 344
257 250 244 235 231 237 243 245 241 241 239 242 240 234 233 233 235 236 233 222 221 206 229 247 285 302 294 277 266 268 278 305 325 337 341 333 335 348
243 237 240 239 236 238 242 246 242 240 240 239 239 236 233 231 230 226 229 227 230 228 239 284 300 341 341 256 255 270 283 306 323 332 337 319 317 342
234 237 234 236 240 241 245 244 244 247 245 241 237 234 231 228 220 224 223 223 225 222 230 243 239 354 21 283 296 253 273 320 322 321 325 322 309 318
244 237 238 239 244 248 248 247 252 252 245 240 237 233 229 224 216 220 219 219 221 220 222 256 252 271 264 226 295 288 306 302 308 309 312 319 315 324
249 244 245 247 249 252 253 250 252 250 246 236 233 229 226 223 224 228 223 219 223 218 218 234 256 273 293 288 288 295 319 319 302 294 300 309 301 297
254 247 250 255 255 252 246 242 240 242 234 235 231 228 225 223 225 224 219 214 221 209 218 241 262 266 278 259 280 300 312 338 348 353 348 318 327 308
271 261 257 256 258 255 250 242 238 238 234 235 229 223 220 217 220 222 220 218 215 213 213 228 246 253 279 268 289 298 310 333 344 353 348 344 326 322